User: anonymous   Login
Location: Young's Pond
(41.2695°N, 72.7766°W)
Time: 23:24:26
(UTC-04:00)
Language:

Spot 4 - Orbit

View from above orbital plane
View from above orbital plane
View from above satellite
View from above satellite

Ground track
Ground track

The orbit data is extracted from the following two-line orbital elements,

1 25260U 98017A   17086.96887448 -.00000039 +00000-0 +15967-5 0  9992
2 25260 098.3535 169.6308 0013687 157.7896 202.3896 14.53465933990057
Epoch (UTC): 27 March 2017 23:15:10
Eccentricity: 0.0013687
inclination: 98.3535°
perigee height: 704 km
apogee height: 724 km
right ascension of ascending node: 169.6308°
argument of perigee: 157.7896°
revolutions per day: 14.53465933
mean anomaly at epoch: 202.3896°
orbit number at epoch: 99005

The dashed part of the orbit path shows where the satellite is in the earth's shadow,  

DLR